Location: Camp Creek
(33.9000°N, 111.8167°W)
Time: 12:07:41
(UTC-07:00)

Cosmos 1656 - Visible Passes

Search period start: 01 September 2014 00:00
Search period end: 11 September 2014 00:00
Orbit: 798 x 850 km, 71.1° (Epoch: 01 September)

Date Brightness Start Highest point End Pass type
(mag) Time Alt. Az. Time Alt. Az. Time Alt. Az.
01 Sep 6.1 01:59:05 18° NNE 01:59:05 18° NNE 02:00:30 10° NNE visible
01 Sep 5.9 03:40:32 13° NW 03:40:32 13° NW 03:41:59 10° NNW visible
02 Sep 6.4 01:39:22 14° NNE 01:39:22 14° NNE 01:40:08 10° NNE visible
02 Sep 5.9 03:20:49 14° NNW 03:20:49 14° NNW 03:22:09 10° NNW visible
03 Sep 6.6 01:19:38 11° NNE 01:19:38 11° NNE 01:19:44 10° NNE visible
03 Sep 6.0 03:01:04 14° NNW 03:01:04 14° NNW 03:02:12 10° NNW visible
04 Sep 6.1 02:41:18 13° NNW 02:41:18 13° NNW 02:42:10 10° N visible
05 Sep 6.3 02:21:31 12° N 02:21:31 12° N 02:22:05 10° N visible
06 Sep 6.5 02:01:42 11° N 02:01:42 11° N 02:01:58 10° N visible
